STARLINK-35175, 65929

Orbit data source: Space-Track

STARLINK-35175, 65929 is a payload satellite owned by SpaceX/Seattle (US) in LEO that was launched on Wed, 08 Oct 2025 UTC via an FALCON 9 launch vehicle from the Air Force Western Test Range (AFWTR). Payload-class satellites include a variety of spacecraft equipped with specific instruments for various scientific and technological missions. These include communications satellites like Starlink; space stations such as the ISS; scientific satellites like the Hubble; Earth observation satellites from companies like Planet Labs, Umbra, and HawkEye 360; GPS; miniature CubeSats for education and research; and military/defense satellites.

Loading next visibility...
Identifier
65929, 2025-225V
Orbit
LEO
Country
Flag of USUS
Related business
Manufacturer
SpaceX/Seattle
Mission
Operational Commercial Communications
Bus & Motor
STARLINK V2MO, Unknown motor
Mass
575 kg wet, ~530 kg dry
Launch date (UTC)
2025-10-08 (8 months ago)
Launch vehicle
FALCON 9
Launch site
Air Force Western Test Range (AFWTR)
Object type
Payload
Rocket body
Debris
Shape & HBR
Box + 2 Pan, 17.7 m
Radar Cross Section
36.964 m², Large (>1 m²)

Expand to show TLE details & history
Last TLE update: 8 hours ago

TLE from 8 hours ago
0 STARLINK-35175
1 65929U 25225V   26151.41267363  .00038743  00000-0  13129-2 0  9997
2 65929  53.1575 141.4174 0001312  70.4711 289.6431 15.30213063 37072
Epoch: 2026-05-31T09:54Z
TLE epoch observation values (Epoch: 2026-05-31T09:54:15.001Z)
Latitude
-0.00006°
Longitude
103.94014°
Altitude
475.773 km
Speed
7.629 km/s
True Right ascension
09h 25m 40s
True Declination
0° 00' 00"
Sunlit
Object was in daylight at epoch
Visualization orbit readout
Latitude
Unknown
Longitude
Unknown
Altitude
Unknown
Speed
Unknown
Apparent Right ascension
Unknown
Apparent Declination
Unknown
Sunlit
N/A
Visualization observer readout
Local Sidereal Time
03:17:26
Azimuth
Unknown
Elevation
Unknown
Doppler factor
Unknown
Orbital elements
Apogee altitude
476.332 km
Perigee altitude
474.534 km
Semi-major axis
6,853.57 km
Eccentricity
0.00013
Inclination
53.1575°
RAAN
141.4174°
Arg. of periapsis
70.4711°
True anomaly
289.62894°
Mean anomaly
289.6431°
Eccentric anomaly
289.63602°
Mean motion
3.82532 °/min
Orbital period
94.11 mins
BSTAR
0.0013129
Loading maneuver chart data...
Computing Atmospheric mass density...
Loading historical data...
Loading historical data...
Loading historical data...
Loading historical data...
Loading historical data...
Loading historical data...
Loading historical data...

Documentation

Showing up to 5 results
|